Location: Pradons
(44.4746°N, 4.3578°E)
Time: 13:40:47
(UTC+00:00)

Cosmos 540 Rocket - Pass Details

Date: 09 April 2020
Orbit: 741 x 753 km, 74.1° (Epoch: 26 May)

Event Time Altitude Azimuth Distance (km) Brightness Sun altitude
Rises 21:27:41 0° 338° (NNW) 3,211 7.8 -29.2°
Reaches altitude 10° 21:30:04 10° 337° (NNW) 2,280 6.8 -29.5°
Enters shadow 21:34:16 59° 323° (NW) 868 3.9 -29.9°
